Temperature
22 20 20 20 20 21 22 21 20 20 20 18 17 17 17 17 17 16 17 17 18 18 18 18 18 18 18 18 18 18 18 18 18 17 17 17 17 16 16 16 16 16 16 15
21 20 21 22 22 21 21 21 20 20 20 18 17 17 17 16 16 16 16 17 18 18 18 18 18 18 18 18 18 18 18 18 17 17 17 17 16 16 16 16 15 15 15 15
22 22 23 23 23 22 21 21 20 19 19 18 18 17 17 16 16 17 17 17 17 18 18 18 18 18 18 18 18 18 18 17 17 17 16 16 16 16 16 15 15 15 15 14
22 22 23 23 23 22 21 21 21 20 18 16 17 17 17 16 16 16 17 17 18 18 18 18 18 18 18 18 18 18 17 17 17 16 16 16 15 15 15 15 14 14 14 14
22 23 23 23 23 22 21 20 19 18 17 16 16 17 16 16 16 16 17 17 18 18 18 19 19 19 18 18 18 17 17 17 16 16 15 15 15 14 14 14 14 13 13 13
22 23 23 23 22 22 20 19 18 16 16 17 16 16 17 16 17 17 17 18 18 19 19 19 18 18 18 18 18 17 17 16 16 15 15 15 14 14 13 13 13 13 13 13
22 23 23 22 21 21 20 18 18 18 16 17 16 16 16 17 17 17 17 18 19 19 19 19 19 18 18 18 18 17 16 16 15 15 15 14 13 13 13 12 12 12 12 12
22 21 23 23 22 20 19 19 18 19 18 17 16 16 17 17 18 18 18 18 19 19 19 19 19 18 18 18 17 17 16 15 15 14 14 13 13 12 12 12 12 11 11 11
21 21 23 23 22 21 19 18 17 16 16 16 16 16 17 18 17 17 18 18 19 19 19 19 19 18 18 17 17 16 15 15 14 13 13 12 12 12 11 11 11 11 11 10
21 22 22 22 22 21 19 16 15 16 17 18 18 17 17 18 18 18 17 18 19 19 19 18 18 18 17 16 16 15 15 14 13 13 12 12 11 11 11 11 10 10 10 10
21 21 21 22 22 21 20 18 15 14 15 16 17 17 17 17 18 18 18 19 19 19 19 18 18 17 16 16 15 14 14 13 13 12 12 11 11 11 10 10 10 10 10 9
19 18 19 21 21 21 21 19 16 17 16 15 16 16 18 17 17 18 19 19 19 19 18 18 17 16 16 15 14 14 13 12 12 11 11 11 10 10 10 10 9 9 9 9
19 18 19 20 19 20 20 19 17 15 14 14 16 18 18 17 18 18 19 19 19 19 18 17 17 16 15 14 14 13 12 12 11 11 11 10 10 10 9 9 9 9 8 8
19 18 19 20 20 20 21 20 17 16 16 15 16 18 18 18 17 17 18 19 19 18 18 17 16 16 15 14 13 12 12 11 11 11 10 10 10 9 9 9 8 8 8 8
19 20 20 19 20 20 21 21 19 18 17 17 18 17 18 17 16 18 18 18 18 18 17 17 16 15 14 13 13 12 12 11 11 10 10 9 9 9 9 8 8 8 8 8
18 20 20 21 21 21 21 21 21 20 19 18 19 18 17 17 17 17 17 18 18 18 17 17 16 15 14 13 12 12 11 11 10 10 9 9 9 9 9 8 8 8 8 8
17 18 19 19 20 21 21 21 21 21 19 18 19 18 17 16 16 17 18 18 18 18 17 16 15 14 13 13 12 11 11 10 10 10 9 9 9 9 8 8 8 8 8 8
16 16 16 17 20 21 20 20 20 20 20 18 18 18 16 17 19 19 19 19 18 18 17 16 15 14 13 12 12 11 11 10 10 9 9 9 9 9 8 8 8 8 8 8
15 15 15 16 19 20 20 20 20 20 20 19 18 17 17 17 17 17 19 19 18 17 16 15 14 14 13 12 11 11 10 10 10 9 9 9 9 9 8 8 8 8 8 8
15 15 15 16 19 20 20 21 20 20 20 19 17 16 15 16 15 16 20 19 18 17 16 15 14 13 13 12 11 11 10 10 10 9 9 9 9 8 8 8 8 8 8 8
17 16 16 16 18 18 19 20 20 20 19 21 20 19 17 16 18 20 20 19 18 17 16 15 14 13 13 12 11 11 10 10 10 9 9 9 9 8 8 8 8 8 8 8
17 17 16 15 18 19 20 19 19 19 22 22 22 21 20 21 21 20 19 19 17 16 15 15 14 13 12 12 11 11 10 10 10 9 9 9 9 8 8 8 8 8 8 8
16 16 15 16 18 19 20 21 22 23 23 23 23 22 22 21 20 20 19 18 17 16 15 15 14 13 13 12 11 11 11 10 10 10 9 9 9 9 8 8 8 8 8 8
17 16 16 16 17 19 21 22 23 23 23 24 23 23 22 21 21 20 19 18 17 16 16 15 14 13 13 12 11 11 10 10 10 10 9 9 9 9 9 8 8 8 8 8
17 17 17 17 17 20 23 23 23 23 23 23 23 22 22 21 21 20 19 18 18 17 16 15 14 13 13 12 11 11 10 10 10 9 9 9 9 9 9 9 8 8 8 8
15 16 17 17 19 18 21 23 23 23 23 23 23 22 22 21 21 20 19 19 18 17 16 15 14 14 13 12 12 11 10 10 10 10 9 9 9 9 9 9 9 9 8 8
Wind_Speed
3 3 5 8 8 7 4 3 2 1 1 5 6 5 2 3 3 2 2 1 2 2 1 2 2 2 2 2 3 3 4 3 3 2 2 1 1 0 0 0 0 1 2 2
3 5 9 5 3 4 3 2 2 1 4 4 5 3 2 2 1 1 2 1 1 2 1 1 2 2 2 2 2 2 3 3 2 1 1 1 1 1 1 1 2 2 2 3
6 7 3 2 2 3 2 4 4 4 4 5 3 2 2 2 2 1 1 2 2 4 4 3 3 3 3 3 4 3 3 2 1 1 2 2 2 2 2 2 2 3 3 4
5 5 3 3 3 4 2 2 5 6 5 2 3 0 3 2 4 3 3 2 3 5 4 4 4 4 5 5 4 3 2 2 1 1 1 2 1 1 3 2 3 4 4 4
4 3 2 2 3 3 3 5 6 5 5 3 5 2 5 2 3 5 5 4 5 5 5 5 5 5 5 4 3 3 2 2 1 1 1 0 1 2 2 2 4 4 4 4
4 2 2 1 3 4 6 6 7 6 5 3 2 1 5 3 5 5 4 4 5 5 5 4 3 3 3 2 2 2 1 1 1 1 1 1 2 3 4 4 4 4 4 4
5 4 1 2 4 3 5 6 4 5 5 2 2 1 7 6 6 6 6 6 4 4 4 3 4 3 3 2 2 2 1 1 2 2 2 2 3 3 4 5 4 5 4 4
1 5 3 1 4 5 3 6 6 3 3 3 2 4 7 6 5 5 5 4 3 3 3 3 4 4 3 2 1 1 1 1 2 2 3 3 3 2 3 5 4 5 5 5
5 5 2 1 1 7 6 3 5 6 2 1 4 6 8 3 3 3 3 3 3 3 2 2 2 2 2 1 1 1 0 1 3 3 3 4 3 3 4 5 4 5 5 6
7 3 3 2 4 5 5 8 6 5 4 1 5 4 5 6 6 5 4 4 3 2 2 2 2 1 1 1 1 1 1 1 3 3 3 3 4 4 5 5 6 6 6 6
4 3 3 3 1 2 3 4 6 5 5 5 3 7 7 9 8 7 7 5 5 4 3 2 1 1 1 1 2 2 2 2 3 4 4 4 5 5 5 5 6 6 6 7
4 5 1 4 3 1 3 5 7 5 3 4 4 7 6 7 7 6 6 4 4 4 3 2 2 1 1 1 2 3 3 4 4 4 4 5 6 6 6 6 7 7 7 7
6 5 3 7 7 3 0 3 4 6 5 5 4 7 3 1 3 5 5 5 4 4 4 2 1 1 2 3 3 4 4 5 5 4 5 6 6 6 7 7 7 7 8 8
6 4 6 6 7 4 3 3 6 6 5 5 8 8 6 5 6 5 4 5 5 4 4 3 2 3 3 4 4 5 5 5 5 4 5 6 7 7 7 8 8 8 8 9
5 4 6 7 6 3 5 6 7 7 8 9 8 8 10 9 8 6 5 6 5 5 5 5 4 4 4 5 5 5 5 5 5 5 6 7 7 7 8 8 9 9 9 10
4 5 3 3 3 3 4 6 5 6 5 6 4 8 7 3 4 5 6 7 7 7 7 6 6 5 5 5 5 5 6 6 5 6 7 8 8 8 8 9 9 9 10 9
4 7 4 3 4 3 5 6 6 5 5 7 8 8 3 5 8 9 9 9 9 8 7 7 7 6 6 6 5 6 6 5 5 6 7 8 8 9 9 10 9 10 9 9
7 6 5 2 2 4 8 4 5 4 4 7 6 5 6 7 5 5 7 9 9 8 8 7 6 6 5 5 5 5 5 5 6 7 8 8 8 9 9 9 10 9 8 9
5 8 5 4 3 6 8 4 6 5 5 6 7 5 4 5 4 3 7 9 9 9 8 7 6 5 5 6 5 4 5 6 6 8 8 9 8 9 10 10 10 9 8 9
5 5 6 4 4 6 9 4 5 5 5 7 8 9 8 8 3 6 7 9 9 8 6 6 5 4 5 6 4 4 6 6 8 8 9 9 8 9 10 10 10 8 8 9
2 3 4 5 5 8 8 3 7 4 8 7 11 10 11 11 9 5 5 8 8 7 7 6 6 5 6 5 3 5 6 8 8 8 8 9 8 8 9 8 8 9 9 9
5 4 4 5 3 8 4 8 9 11 4 7 11 11 12 11 7 5 6 8 8 7 7 7 6 7 6 5 4 6 8 8 7 7 8 9 9 8 7 8 9 8 8 8
6 7 6 8 8 6 6 9 7 4 6 8 10 11 12 10 8 8 8 9 9 9 8 6 7 7 6 5 6 7 7 6 6 7 8 8 9 8 7 7 9 8 7 7
3 3 3 4 8 7 7 7 6 8 8 8 9 10 12 11 11 10 9 9 8 8 8 6 6 7 7 6 6 8 7 5 5 7 8 8 8 9 8 7 6 7 7 7
5 2 1 5 8 9 8 6 6 6 6 5 7 9 13 13 11 11 10 10 10 9 7 6 7 8 8 7 7 7 6 4 5 7 7 8 7 8 8 8 7 8 8 7
2 3 4 6 7 5 8 7 3 4 7 8 8 8 8 11 13 11 11 10 9 8 7 7 8 8 8 7 7 6 5 4 5 6 7 6 6 7 7 8 9 9 10 11
Wind_Direction
114 95 229 233 213 217 222 233 268 301 51 70 87 97 66 19 41 34 39 91 101 106 150 144 145 129 117 112 120 129 129 128 123 111 115 117 121 288 310 278 338 321 301 290
42 262 244 239 217 204 202 205 192 79 68 86 89 65 10 7 358 306 271 236 166 172 162 185 186 181 172 172 178 175 167 164 163 144 153 161 156 216 249 296 315 303 297 282
211 248 264 212 232 191 211 196 196 161 95 65 101 15 308 298 297 271 240 224 237 218 203 222 219 215 205 214 214 205 203 193 186 125 91 68 45 13 347 315 305 301 304 299
236 259 267 256 244 185 245 236 148 127 104 43 41 322 293 294 310 291 277 258 244 248 230 229 228 227 225 228 222 215 210 212 219 162 154 164 178 243 257 269 283 299 303 300
259 241 236 253 264 167 151 79 90 99 107 72 27 67 299 333 299 276 262 245 244 245 234 235 238 232 227 217 205 203 198 215 227 190 183 203 259 260 287 297 302 305 305 301
253 264 222 221 23 97 117 74 61 56 72 49 346 47 288 255 235 258 262 251 245 248 244 240 248 239 233 208 181 170 174 261 312 325 336 278 279 290 303 306 306 306 305 302
331 323 303 121 89 46 75 83 34 7 17 282 283 264 256 249 228 228 247 262 265 256 234 226 226 220 214 192 178 150 152 295 339 343 328 299 276 273 274 280 284 290 295 293
314 302 284 190 168 167 151 135 154 194 226 285 321 264 260 254 246 236 239 246 251 248 228 220 215 200 197 181 153 133 137 302 332 328 312 302 287 275 273 274 273 274 273 277
184 257 301 45 120 134 137 134 144 124 107 9 301 297 304 269 268 238 237 236 229 219 201 187 167 157 153 134 122 142 160 311 321 317 312 305 302 290 282 284 278 276 276 282
164 227 300 335 74 50 114 137 101 106 130 284 308 294 257 259 246 237 234 234 224 176 152 147 137 115 88 75 48 40 37 294 298 304 300 302 298 293 290 292 291 288 287 286
136 158 315 10 81 169 105 93 99 104 141 150 243 271 228 223 223 218 225 220 205 192 178 160 120 74 61 36 17 357 336 315 308 307 303 305 301 300 300 293 290 290 290 292
127 121 283 287 297 158 160 159 147 145 190 168 180 265 264 230 227 212 216 206 181 170 160 145 127 80 23 343 330 322 311 302 295 295 297 297 297 300 298 294 292 292 291 290
136 106 52 351 345 352 136 148 139 124 117 151 175 262 298 228 202 203 196 182 160 156 155 149 160 243 273 288 297 297 294 289 291 294 297 298 298 296 291 290 291 291 289 289
117 111 157 197 228 236 259 185 156 137 150 194 219 246 276 232 213 205 179 164 158 170 183 199 230 252 266 277 282 285 287 288 294 297 297 295 292 290 289 290 291 291 290 288
114 165 213 235 247 227 238 235 188 191 192 190 227 226 243 227 215 204 175 164 170 194 214 222 231 248 264 274 280 281 285 293 298 300 298 292 291 292 292 292 292 292 291 290
118 167 185 286 287 257 252 250 217 206 195 212 241 254 250 194 147 163 174 179 197 216 227 235 241 249 255 262 272 283 284 291 296 294 292 293 296 298 297 295 294 294 294 292
148 145 143 258 306 4 279 246 210 208 200 181 209 237 183 171 191 197 195 195 208 221 230 236 241 243 249 256 262 268 276 289 293 290 292 295 296 297 296 298 298 296 295 292
148 137 143 163 56 249 251 262 202 196 226 210 225 232 195 199 199 203 192 195 213 222 228 235 236 242 249 251 258 265 277 285 288 290 293 295 296 296 298 299 297 295 293 292
144 137 127 133 185 277 289 233 167 167 259 216 206 203 153 109 71 302 220 203 209 214 218 223 225 227 241 255 259 267 282 287 289 290 292 294 296 298 301 301 298 297 296 297
78 102 117 134 166 235 252 234 158 110 282 227 186 181 158 127 152 253 222 198 211 216 215 218 222 225 245 256 252 258 276 285 285 286 290 294 295 295 296 295 295 294 294 293
55 74 132 159 204 257 252 166 131 161 245 211 183 181 168 180 201 223 190 189 200 208 214 213 213 227 243 252 239 255 272 275 277 287 293 296 296 294 291 289 290 295 297 298
192 170 177 149 184 258 218 147 181 214 221 181 185 185 186 205 213 209 196 196 199 207 215 209 215 239 250 243 228 254 267 270 283 291 295 297 299 299 299 296 297 297 298 302
200 195 189 190 215 242 215 212 232 190 197 197 191 194 190 197 210 208 206 205 208 211 215 212 215 240 255 243 223 246 262 276 288 295 297 299 304 302 298 295 299 304 304 301
274 157 167 254 272 268 257 247 238 210 213 209 193 184 179 194 205 205 206 207 212 217 218 212 213 234 252 249 237 241 261 274 282 291 297 301 306 309 309 304 297 297 299 301
257 191 232 274 285 309 306 266 241 224 213 201 191 187 189 193 202 202 204 208 211 215 215 208 214 231 246 253 254 255 257 263 278 288 294 300 302 303 308 308 298 290 281 271
254 205 208 245 253 235 270 282 262 220 219 204 190 197 200 197 203 200 205 207 206 209 208 212 222 232 244 249 256 261 254 250 269 288 297 300 304 307 308 312 314 294 278 282
Height
1504 1509 1512 1507 1504 1504 1505 1509 1511 1509 1504 1508 1512 1514 1514 1513 1513 1512 1512 1511 1512 1512 1514 1515 1515 1516 1517 1518 1519 1519 1520 1520 1521 1521 1521 1520 1520 1520 1519 1519 1518 1517 1516 1516
1508 1509 1500 1497 1498 1501 1504 1509 1510 1509 1507 1510 1516 1517 1515 1514 1514 1513 1512 1511 1511 1513 1514 1515 1516 1517 1517 1518 1519 1520 1520 1520 1520 1520 1520 1520 1519 1518 1518 1517 1515 1515 1514 1513
1506 1501 1494 1496 1498 1501 1504 1506 1507 1510 1511 1513 1516 1521 1518 1515 1514 1512 1512 1512 1512 1513 1514 1515 1516 1517 1517 1518 1519 1520 1520 1520 1520 1519 1519 1518 1517 1516 1515 1514 1513 1512 1511 1510
1501 1496 1495 1496 1497 1498 1505 1499 1500 1507 1516 1525 1522 1531 1520 1516 1515 1513 1512 1512 1513 1513 1514 1515 1515 1516 1517 1518 1519 1519 1519 1519 1519 1518 1517 1516 1515 1513 1512 1511 1510 1509 1508 1507
1499 1494 1495 1496 1495 1494 1500 1498 1502 1509 1518 1526 1527 1531 1526 1518 1516 1513 1511 1512 1512 1513 1513 1514 1514 1515 1516 1517 1517 1518 1518 1517 1517 1516 1515 1513 1512 1511 1509 1508 1506 1505 1504 1503
1494 1492 1492 1493 1493 1493 1497 1502 1509 1517 1523 1535 1532 1534 1529 1520 1514 1511 1509 1510 1510 1511 1512 1513 1514 1514 1515 1515 1516 1516 1516 1515 1515 1514 1512 1511 1509 1508 1506 1505 1503 1502 1500 1499
1499 1494 1491 1491 1496 1498 1501 1515 1530 1532 1540 1538 1531 1532 1527 1511 1508 1508 1507 1508 1508 1509 1510 1511 1512 1512 1513 1514 1514 1514 1513 1513 1512 1511 1509 1508 1506 1505 1503 1501 1499 1498 1496 1495
1508 1509 1493 1491 1494 1500 1504 1511 1530 1538 1542 1538 1531 1532 1518 1505 1504 1504 1505 1506 1507 1508 1509 1509 1510 1511 1512 1512 1512 1512 1511 1510 1509 1508 1506 1505 1503 1501 1499 1497 1495 1493 1492 1490
1508 1507 1491 1489 1490 1494 1505 1512 1514 1530 1536 1540 1534 1525 1512 1502 1503 1503 1503 1504 1505 1506 1507 1508 1509 1510 1510 1510 1510 1510 1509 1508 1506 1505 1503 1501 1500 1497 1495 1493 1491 1489 1487 1485
1497 1504 1494 1491 1491 1495 1498 1508 1520 1530 1541 1542 1533 1528 1522 1506 1503 1501 1502 1502 1503 1505 1506 1507 1508 1508 1509 1509 1508 1507 1507 1505 1504 1502 1500 1498 1496 1494 1492 1489 1487 1485 1482 1480
1493 1504 1501 1496 1497 1500 1503 1510 1520 1530 1531 1541 1542 1532 1504 1500 1498 1498 1499 1500 1502 1504 1505 1506 1507 1507 1508 1507 1507 1506 1504 1503 1501 1499 1497 1495 1493 1490 1488 1485 1483 1480 1478 1475
1494 1505 1510 1502 1495 1493 1497 1503 1514 1524 1531 1534 1537 1529 1495 1494 1494 1495 1497 1499 1501 1503 1504 1505 1506 1506 1506 1506 1505 1504 1502 1500 1498 1496 1494 1492 1489 1486 1484 1481 1478 1475 1472 1470
1494 1505 1517 1515 1510 1500 1498 1501 1508 1517 1528 1535 1536 1520 1493 1492 1493 1494 1495 1497 1499 1501 1503 1504 1505 1505 1505 1504 1503 1501 1500 1498 1495 1493 1491 1488 1485 1482 1479 1476 1473 1470 1467 1465
1488 1502 1512 1516 1510 1500 1499 1498 1505 1512 1523 1527 1522 1510 1496 1492 1493 1493 1495 1496 1498 1501 1502 1503 1503 1503 1503 1502 1500 1499 1497 1495 1492 1490 1487 1484 1481 1478 1475 1471 1468 1465 1462 1459
1487 1498 1499 1499 1495 1495 1494 1493 1497 1503 1506 1511 1504 1503 1493 1490 1490 1491 1493 1495 1497 1499 1501 1501 1501 1501 1500 1499 1498 1496 1494 1491 1489 1486 1483 1480 1477 1474 1470 1467 1464 1461 1458 1455
1487 1494 1496 1497 1491 1492 1493 1489 1490 1492 1495 1498 1496 1495 1485 1486 1488 1490 1492 1494 1496 1497 1498 1499 1499 1499 1498 1496 1495 1493 1490 1488 1485 1483 1480 1476 1473 1470 1466 1463 1459 1456 1453 1450
1490 1495 1502 1505 1496 1493 1499 1488 1486 1487 1487 1491 1494 1488 1484 1485 1486 1487 1489 1492 1493 1495 1496 1497 1497 1496 1495 1493 1491 1489 1487 1485 1482 1479 1476 1473 1469 1466 1462 1459 1455 1452 1448 1445
1489 1496 1504 1506 1500 1507 1494 1480 1480 1482 1482 1483 1482 1481 1481 1482 1484 1486 1488 1490 1491 1493 1494 1494 1494 1493 1492 1490 1488 1486 1484 1482 1479 1476 1472 1469 1466 1462 1458 1455 1451 1448 1444 1441
1483 1493 1504 1510 1508 1501 1487 1478 1479 1482 1482 1477 1479 1479 1481 1482 1484 1485 1486 1487 1489 1490 1491 1491 1491 1490 1488 1487 1485 1483 1481 1478 1475 1472 1469 1466 1462 1458 1454 1451 1447 1444 1440 1437
1486 1489 1500 1507 1505 1506 1487 1473 1474 1479 1485 1473 1474 1477 1480 1482 1490 1485 1482 1484 1486 1487 1488 1488 1487 1486 1485 1484 1482 1480 1477 1475 1472 1469 1465 1462 1458 1455 1451 1447 1444 1440 1436 1433
1490 1494 1498 1504 1503 1495 1475 1471 1475 1490 1485 1468 1469 1472 1475 1477 1479 1479 1480 1481 1483 1484 1485 1484 1484 1483 1482 1481 1479 1476 1474 1471 1468 1465 1462 1459 1455 1451 1448 1444 1441 1437 1433 1429
1490 1495 1498 1502 1502 1495 1469 1471 1475 1471 1463 1464 1466 1468 1471 1472 1475 1477 1478 1479 1480 1481 1481 1481 1480 1480 1479 1477 1475 1473 1470 1468 1465 1462 1458 1455 1452 1448 1445 1441 1437 1434 1430 1426
1485 1484 1486 1487 1482 1468 1465 1464 1462 1462 1462 1462 1463 1465 1468 1470 1472 1474 1475 1476 1477 1477 1478 1477 1477 1476 1475 1474 1472 1469 1467 1464 1461 1458 1455 1452 1448 1445 1441 1438 1434 1430 1426 1422
1476 1475 1478 1478 1468 1462 1461 1460 1459 1459 1459 1459 1461 1462 1465 1467 1468 1470 1471 1472 1473 1474 1474 1474 1473 1473 1472 1470 1468 1466 1464 1461 1458 1455 1452 1448 1445 1441 1438 1435 1431 1427 1423 1419
1475 1474 1475 1474 1466 1460 1457 1456 1456 1456 1456 1457 1458 1460 1461 1463 1465 1466 1467 1468 1469 1470 1471 1471 1470 1469 1468 1467 1465 1463 1460 1458 1455 1452 1448 1445 1441 1438 1435 1431 1428 1424 1420 1416
1473 1474 1475 1472 1463 1463 1458 1455 1455 1454 1454 1454 1455 1456 1458 1459 1461 1462 1463 1464 1466 1467 1467 1467 1467 1466 1465 1463 1462 1459 1457 1454 1451 1448 1445 1442 1438 1435 1431 1428 1424 1421 1418 1414